Regional Weather Roundup
Issued by NWS State College, PA

Home | Current Version | Previous Version | Graphics & Text | Print | Product List | Glossary On
Versions: 1 2 3 4 5 6 7 8 9 10 11 12 13 14 15 16 17 18 19 20 21 22 23 24 25 26 27 28 29 30 31 32 33 34 35 36 37 38 39 40 41 42 43 44 45 46 47 48 49 50
676
ASUS41 KCTP 280503
RWRCTP

REGIONAL WEATHER ROUNDUP
NATIONAL WEATHER SERVICE STATE COLLEGE PA
100 AM EDT SUN AUG 28 2016

Note: "fair" indicates few or no clouds below 12,000 feet with no
significant weather and/or obstructions to visibility.

* = STATION THAT DOES NOT REPORT PRECIPITATION /E.G. RAIN...SNOW...ETC/
    THUNDER OR FOG.

PAZ002>004-007>009-013>016-020>023-029>032-280600-
WESTERN PENNSYLVANIA

CITY           SKY/WX    TMP DP  RH WIND       PRES   REMARKS
ERIE           CLOUDY    78  66  66 S9        30.12R
MEADVILLE      CLOUDY    74  64  71 S5        30.17R
FRANKLIN*        N/A     73  64  73 SE7       30.19S
NEW CASTLE     FAIR      70  68  93 CALM      30.17R
BEAVER COUNTY  NOT AVBL
BUTLER*        NOT AVBL
PITTSBURGH INT PTCLDY    74  69  85 S3        30.16S
PITTSBURGH     CLEAR     77  67  71 S7        30.16F
INDIANA*       PTCLDY    75  66  73 S9        30.22R
LATROBE        CLEAR     77  68  73 SE5       30.19S
WASHINGTON CO* CLEAR     68  66  94 CALM      30.18S
$$

PAZ004>006-010>012-017>019-024>028-033>037-041-042-045-046-049>053-280600-
CENTRAL PENNSYLVANIA

CITY           SKY/WX    TMP DP  RH WIND       PRES   REMARKS
BRADFORD       PTCLDY    66  66 100 SE3       30.23S
DUBOIS         CLEAR     72  64  76 SE3       30.21S
CLEARFIELD     CLEAR     67  66  97 N6        30.22R
JOHNSTOWN      CLOUDY    72  65  78 S10       30.26R
ALTOONA        CLOUDY    71  65  81 CALM      30.24R
STATE COLLEGE  CLEAR     71  66  83 CALM      30.22S
WILLIAMSPORT   CLEAR     69  65  86 CALM      30.18F
SELINSGROVE    CLEAR     66  66 100 CALM      30.21S
FT INDIANTOWN  CLEAR     70  64  81 NE3       30.22R
CAPITAL CITY   CLEAR     75  66  73 CALM      30.20S
HARRISBURG     PTCLDY    74  67  78 E6        30.20R
YORK           CLEAR     71  67  87 CALM      30.21R
$$

PAZ038>040-043-044-047-048-054-055-060>062-067>071-280600-
EASTERN PENNSYLVANIA

CITY           SKY/WX    TMP DP  RH WIND       PRES   REMARKS
SCRANTON       CLEAR     69  62  78 E5        30.23S
MOUNT POCONO   CLEAR     62  57  83 SE5       30.29S
ALLENTOWN      PTCLDY    69  61  75 NE3       30.23S
QUAKERTOWN*    CLEAR     64  61  88 CALM      30.24F
READING        CLEAR     74  60  61 S5        30.21S
LANCASTER      CLEAR     69  68  96 E5        30.22R
COATESVILLE    CLEAR     72  64  78 CALM      30.25S
POTTSTOWN      PTCLDY    67  60  78 CALM      30.24F
BLUE BELL      CLEAR     63  61  94 CALM      30.23S
DOYLESTOWN     CLEAR     68  64  87 CALM      30.23F
WILLOW GROVE   NOT AVBL
NORTH PHILA    CLEAR     70  65  84 CALM      30.24S
PHILADELPHIA   PTCLDY    72  67  84 E3        30.23S
$$




USA.gov is the U.S. government's official web portal to all federal, state and local government web resources and services.